Actualité

 

LogoChallengeNewsletter

Challenge du Pays Boulonnais
 
La cagnotte "Chronopale 2020" à partager entre tous les coureurs classés sur les 9 épreuves sera de 850€
Date des épreuves 2020
  1.  09/02/20 Les 6 Miles de Pont de Briques
  2.  08/03/20 Semi Marathon de la Terre des 2 Caps à Ferques (Sauf pour les cadets)
  3.  01/05/20 La Ronde du Fort de l'Heurt à Le Portel 10 Km (nature plage et falaise)
  4.  07/06/20 La Win Run à Wimereux 10 Km
  5.  28/06/20 Boulogne le 10 Km
  6.  11/10/20 Les Foulées de la Santé à Saint Martin 10 Km   
  7.  15/11/20 Les Foulées Outreloises à Outreau  10 Km            
  8.  22/11/20 Les Foulées de la Sainte Catherine à Menneville 10 Km *
  9.  05/12/20 Rues & Run Desvroises 10 Km

* A cette heure les Foulées de la Sainte Catherine de Menneville ne sont pas assurées d'avoir lieu (décision après les éléctions municipales) 

 

Nous contacter

Chronopale
59 Rue Léonce TOBO
62200 Boulogne sur mer
06 60 17 22 13
contact@chronopale.fr
www.chronopale.fr

 

10Km

10 KM  LA COULONNOISE du 10/11/19 (Reelle 10)
Rang Dossard Nom Prénom Temps Cat Rang Cat Ecart Ecart Cat Club Vitesse Km/h Temps au Km
1 243 BRUNET Mickael 00:35:18 M1M 1 00:00:00 00:00:00 Bnt 16,997 03:32
2 165 SBARDELLA Francois 00:35:39 SEM 1 00:00:21 00:00:00 Triathlon club montreuillois 16,830 03:34
3 215 IMMOUNI Aziz 00:36:05 M1M 2 00:00:47 00:00:47 16,628 03:37
4 240 LIMOUSIN Stephane 00:36:21 M2M 1 00:01:03 00:00:00 BOULOGNE-SUR-MER AC 16,506 03:38
5 163 LOEUILLIEUX Pierre 00:36:45 SEM 2 00:01:27 00:01:06 16,327 03:41
6 122 LECOCQ Robin 00:36:54 ESM 1 00:01:36 00:00:00 16,260 03:41
7 246 PILLIER Romain 00:37:02 SEM 3 00:01:44 00:01:23 Cote d opale triathlon 16,202 03:42
8 221 TIBERGHIEN Antoine 00:37:07 M1M 3 00:01:49 00:01:49 Lys calais triathlon 16,165 03:43
9 270 DEWET WILFRIED 00:37:20 M2M 2 00:02:02 00:00:59 - 16,071 03:44
10 287 FOURRIER Frederic 00:37:21 M1M 4 00:02:03 00:02:03 AS CRS 16 16,064 03:44
11 258 PRUDHOMME GEORGES 00:37:27 M3M 1 00:02:09 00:00:00 COURIR DANS LE LUMBROIS 16,021 03:45
12 265 MACREL LOIC 00:37:28 SEM 4 00:02:10 00:01:49 PATRIOTE CROSS DE GUINES 16,014 03:45
13 131 VILLEZ Morgan 00:37:56 M1M 5 00:02:38 00:02:38 15,817 03:48
14 114 JACQUERIE Francois 00:38:05 M2M 3 00:02:47 00:01:44 15,755 03:49
15 204 WUYTS Maxime 00:38:07 M0M 1 00:02:49 00:00:00 15,741 03:49
16 83 DELAPLACE Loic 00:38:10 M2M 4 00:02:52 00:01:49 15,721 03:49
17 268 JOSEPH Joel 00:38:13 M4M 1 00:02:55 00:00:00 PATRIOTE CROSS DE GUINES 15,700 03:49
18 177 LEFRANC Sebastien 00:38:20 SEM 5 00:03:02 00:02:41 15,652 03:50
19 137 BOULENGER Romain 00:38:25 M0M 2 00:03:07 00:00:18 15,618 03:50
20 219 WASSELIN Vincent 00:38:36 M1M 6 00:03:18 00:03:18 15,544 03:52
21 120 COUPIN Franck 00:38:41 M0M 3 00:03:23 00:00:34 15,511 03:52
22 238 LAFFONT Leo 00:38:45 SEM 6 00:03:27 00:03:06 S/L US DUNKERQUE 15,484 03:53
23 159 BREQUEVILLE David 00:38:45 M0M 4 00:03:27 00:00:38 15,484 03:53
24 227 ALVAREZ Sebastien 00:38:52 M2M 5 00:03:34 00:02:31 15,437 03:53
25 66 MöLLER Vincent 00:38:54 SEM 7 00:03:36 00:03:15 Team jack 15,424 03:53
26 286 HALGHEM ALEXANDRE 00:39:31 SEM 8 00:04:13 00:03:52 . 15,183 03:57
27 229 LELEU Jean-francois 00:39:38 M2M 6 00:04:20 00:03:17 15,139 03:58
28 277 HERMEL THIERRY 00:39:51 M2M 7 00:04:33 00:03:30 AS MARCK 15,056 03:59
29 10 PIOT Benjamin 00:40:08 M1M 7 00:04:50 00:04:50 AS MARCK 14,950 04:01
30 145 GIROUD Quentin 00:40:14 ESM 2 00:04:56 00:03:20 STADE OLYMPIQUE CALAIS ATHLETISME 14,913 04:01
31 241 RENAUX Frederic 00:40:19 M1M 8 00:05:01 00:05:01 Gravelines triathlon 14,882 04:02
32 135 BOURRE Julien 00:40:22 M0M 5 00:05:04 00:02:15 14,864 04:02
33 68 BARRAS Julien 00:40:22 M0M 6 00:05:04 00:02:15 AS MARCK 14,864 04:02
34 153 FOURNIER Jerome 00:40:26 M1M 9 00:05:08 00:05:08 LA PATRIOTE CROSS DE GUINES 14,839 04:03
35 182 DENEZ Francois 00:40:34 M2M 8 00:05:16 00:04:13 Ac coquelles 14,790 04:03
36 196 RIBERY Hugo 00:40:42 JUM 1 00:05:24 00:00:00 AS MARCK 14,742 04:04
37 90 VANDERSTRAETEN Karine 00:40:43 M2F 1 00:05:25 00:00:00 Courir a gravelines 14,736 04:04
38 72 RIVENET Paul 00:40:49 M0M 7 00:05:31 00:02:42 14,700 04:05
39 205 WUYTS Alexandre 00:40:53 M0M 8 00:05:35 00:02:46 14,676 04:05
40 271 TESSIER Laurent 00:40:56 M2M 9 00:05:38 00:04:35 AS MARCK 14,658 04:06
41 178 DUCROCQ Arnaud 00:41:05 M2M 10 00:05:47 00:04:44 Team jack 14,604 04:06
42 269 DUPREZ AMAURY 00:41:09 SEM 9 00:05:51 00:05:30 14,581 04:07
43 80 DECROIX Gautier 00:41:10 SEM 10 00:05:52 00:05:31 14,575 04:07
44 8 LABOURE Romain 00:41:11 SEM 11 00:05:53 00:05:32 14,569 04:07
45 285 LEGROS Mathieu 00:41:12 M1M 10 00:05:54 00:05:54 AS MARCK 14,563 04:07
46 197 DELANNOY Allyson 00:41:14 M1F 1 00:05:56 00:00:00 BOULOGNE-SUR-MER AC 14,551 04:07
47 55 CHAUCHOY Olivier 00:41:15 M3M 2 00:05:57 00:03:48 Colembert 14,545 04:07
48 262 HYART AURELIEN 00:41:24 SEM 12 00:06:06 00:05:45 BLANC NEZ TRIATHLON 14,493 04:08
49 272 MOUSSAY LAURENT 00:41:25 M3M 3 00:06:07 00:03:58 AS MARCK 14,487 04:09
50 88 GILLOOTS Stephane 00:41:26 M4M 2 00:06:08 00:03:13 Triathlon club du montreuillois 14,481 04:09
51 36 VIDAL Yoann 00:41:30 M0M 9 00:06:12 00:03:23 Blanc nez triathlon 14,458 04:09
52 109 SCAT Ludovic 00:41:35 SEM 13 00:06:17 00:05:56 Gravelines triathlon 14,429 04:10
53 79 LANNOY Eric 00:41:46 M3M 4 00:06:28 00:04:19 14,366 04:11
54 186 SELLIER Christophe 00:41:58 M2M 11 00:06:40 00:05:37 14,297 04:12
55 139 BAUDEMONT Marc 00:42:00 M0M 10 00:06:42 00:03:53 14,286 04:12
56 290 DUBAIL FLORENTIN 00:42:01 M0M 11 00:06:43 00:03:54 LYS CALAIS TRIATHLON 14,280 04:12
57 155 WILLO Julien 00:42:02 SEM 14 00:06:44 00:06:23 14,274 04:12
58 73 LEROY Edward 00:42:08 ESM 3 00:06:50 00:05:14 14,241 04:13
59 94 LEFEBVRE Ludovic 00:42:10 M3M 5 00:06:52 00:04:43 AS MARCK 14,229 04:13
60 228 RIBERY Sebastien 00:42:10 M2M 12 00:06:52 00:05:49 14,229 04:13
61 20 DAUX Fabien 00:42:12 M2M 13 00:06:54 00:05:51 14,218 04:13
62 248 RAULT Sebastien 00:42:14 M1M 11 00:06:56 00:06:56 Patriote cross guines 14,207 04:13
63 189 PAPEGAY Alexis 00:42:18 SEM 15 00:07:00 00:06:39 14,184 04:14
64 52 DUCHEMIN Cedric 00:42:23 SEM 16 00:07:05 00:06:44 14,157 04:14
65 108 WIDEHEM Dany 00:42:52 SEM 17 00:07:34 00:07:13 13,997 04:17
66 192 VIVIEZ Vincent 00:42:57 M0M 12 00:07:39 00:04:50 Blanc nez triathlon 13,970 04:18
67 154 THIRARD Brandon 00:42:58 SEM 18 00:07:40 00:07:19 13,964 04:18
68 95 VANDENABELE Bastien 00:42:59 M1M 12 00:07:41 00:07:41 13,959 04:18
69 291 VIGNERON FRANCOIS 00:43:02 M0M 13 00:07:44 00:04:55 . 13,943 04:18
70 101 HARINCK Mathieu 00:43:06 SEM 19 00:07:48 00:07:27 13,921 04:19
71 276 MARQUANT Joel 00:43:09 M6M 1 00:07:51 00:00:00 . 13,905 04:19
72 41 LAURIER Alexandre 00:43:15 SEM 20 00:07:57 00:07:36 13,873 04:20
73 115 JACQUERIE Valerie 00:43:16 M2F 2 00:07:58 00:02:33 13,867 04:20
74 57 BRAULLE Johnny 00:43:17 M0M 14 00:07:59 00:05:10 13,862 04:20
75 252 DEBOVE Olivier 00:43:19 M1M 13 00:08:01 00:08:01 Marquise club triathlon 13,851 04:20
76 113 LEFEBVRE Morgan 00:43:24 SEM 21 00:08:06 00:07:45 13,825 04:20
77 61 CONDETTE Frederic 00:43:31 M1M 14 00:08:13 00:08:13 AS MARCK 13,788 04:21
78 77 CADET Jean-noel 00:43:33 M2M 14 00:08:15 00:07:12 13,777 04:21
79 282 BLOUIN XAVIER 00:43:36 M1M 15 00:08:18 00:08:18 Lys Calais Triathlon 13,761 04:22
80 128 DEPRE Christophe 00:43:44 M3M 6 00:08:26 00:06:17 13,720 04:22
81 213 DEMARET Simon 00:43:47 SEM 22 00:08:29 00:08:08 13,704 04:23
82 169 DUQUENOY Mandy 00:43:50 M2F 3 00:08:32 00:03:07 13,688 04:23
83 216 MASSOUYE David 00:43:51 M2M 15 00:08:33 00:07:30 13,683 04:23
84 280 DOYER Eric 00:43:59 M2M 16 00:08:41 00:07:38 AS MARCK 13,642 04:24
85 91 BECQUET Christophe 00:44:03 M1M 16 00:08:45 00:08:45 13,621 04:24
86 283 LEGROS FREDDY 00:44:03 M2M 17 00:08:45 00:07:42 13,621 04:24
87 184 BATILLIOT Dominique 00:44:10 M4F 1 00:08:52 00:00:00 La team jack 13,585 04:25
88 54 BLOT Fabien 00:44:25 SEM 23 00:09:07 00:08:46 13,508 04:26
89 14 VASSEUR Jerome 00:44:27 SEM 24 00:09:09 00:08:48 13,498 04:27
90 121 LECOUSTRE Wilfried 00:44:36 M0M 15 00:09:18 00:06:29 13,453 04:28
91 179 NATANNI Steeven 00:44:37 SEM 25 00:09:19 00:08:58 13,448 04:28
92 180 OUGHALIME Brahim 00:44:42 M0M 16 00:09:24 00:06:35 13,423 04:28
93 183 VAILLANT Sylvain 00:44:44 M0M 17 00:09:26 00:06:37 13,413 04:28
94 267 TARTART SYLVIE 00:44:52 M2F 4 00:09:34 00:04:09 PATRIOTE CROSS DE GUINES 13,373 04:29
95 168 DUQUENOY Alain 00:44:54 M3M 7 00:09:36 00:07:27 13,363 04:29
96 170 DELEPIERRE Sylvain 00:44:58 M2M 18 00:09:40 00:08:37 13,343 04:30
97 97 DEMARQUET Vincent 00:45:00 SEM 26 00:09:42 00:09:21 13,333 04:30
98 222 MOYTI Franck 00:45:01 M3M 8 00:09:43 00:07:34 13,328 04:30
99 187 VANDERSTRAETEN Christophe 00:45:02 M2M 19 00:09:44 00:08:41 Courir a gravelines 13,323 04:30
100 160 CRESSON Karel 00:45:03 M3M 9 00:09:45 00:07:36 13,319 04:30
101 166 DUQUENOY David 00:45:09 M1M 17 00:09:51 00:09:51 13,289 04:31
102 15 GUETTET Nicolas 00:45:18 M0M 18 00:10:00 00:07:11 13,245 04:32
103 102 LUCAS Xavier 00:45:21 M4M 3 00:10:03 00:07:08 13,230 04:32
104 129 CURVEILLER Sebastien 00:45:22 M0M 19 00:10:04 00:07:15 13,226 04:32
105 193 TALANDIER Coralie 00:45:26 M0F 1 00:10:08 00:00:00 13,206 04:33
106 261 BLANPAIN FABRICE 00:45:30 M3M 10 00:10:12 00:08:03 - 13,187 04:33
107 260 LOGEZ ALEXANDRE 00:45:34 SEM 27 00:10:16 00:09:55 . 13,168 04:33
108 126 LECOUSTRE Endrick 00:45:37 SEM 28 00:10:19 00:09:58 13,153 04:34
109 119 FONTAINE Amelie 00:45:52 SEF 1 00:10:34 00:00:00 Lys calais triathlon 13,081 04:35
110 138 HUCHIN Manuel 00:45:52 M0M 20 00:10:34 00:07:45 13,081 04:35
111 28 GUILBERT Pierre 00:45:58 ESM 4 00:10:40 00:09:04 13,053 04:36
112 71 FAIEULLE Stephane 00:46:00 M3M 11 00:10:42 00:08:33 13,043 04:36
113 162 FAIEULLE Amandine 00:46:01 SEF 2 00:10:43 00:00:09 ENTENTE MARITIME ATHLETIQUE 62* 13,039 04:36
114 158 AGNERAY Mathieu 00:46:01 SEM 29 00:10:43 00:10:22 13,039 04:36
115 257 JOLY David 00:46:02 M2M 20 00:10:44 00:09:41 LA PATRIOTE CROSS DE GUINES 13,034 04:36
116 302 DEMAN FABIEN 00:46:03 M0M 21 00:10:45 00:07:56 - 13,029 04:36
117 284 GOURDIN FREDERIQUE 00:46:06 M2F 5 00:10:48 00:05:23 - 13,015 04:37
118 98 MAEGHT Fabrice 00:46:07 M3M 12 00:10:49 00:08:40 13,010 04:37
119 4 VANDENBROUCKE Nicolas 00:46:10 M1M 18 00:10:52 00:10:52 12,996 04:37
120 127 BIGOTE Alexandre 00:46:13 M0M 22 00:10:55 00:08:06 12,982 04:37
121 207 CATOIRE Didier 00:46:17 M3M 13 00:10:59 00:08:50 12,964 04:38
122 259 CHRETIEN FABIEN 00:46:19 M0M 23 00:11:01 00:08:12 . 12,954 04:38
123 117 LEROUX Jean 00:46:30 M5M 1 00:11:12 00:00:00 12,903 04:39
124 275 DEVOS JIMMY 00:46:31 SEM 30 00:11:13 00:10:52 . 12,899 04:39
125 239 BAILLET Antoine 00:46:32 SEM 31 00:11:14 00:10:53 12,894 04:39
126 18 LENGLET Dominique 00:46:35 M1M 19 00:11:17 00:11:17 12,880 04:40
127 87 HEMBERT Baptiste 00:46:36 CAM 1 00:11:18 00:00:00 STADE OLYMPIQUE CALAIS ATHLETISME 12,876 04:40
128 171 GUILBERT Kevin 00:46:39 SEM 32 00:11:21 00:11:00 12,862 04:40
129 92 GRUWE Pierre 00:46:43 SEM 33 00:11:25 00:11:04 12,843 04:40
130 273 DEGARDIN YANIS 00:46:44 CAM 2 00:11:26 00:00:08 . 12,839 04:40
131 143 LEROY Frederic 00:46:54 M0M 24 00:11:36 00:08:47 12,793 04:41
132 194 HENNEQUIN Emmanuelle 00:47:01 SEF 3 00:11:43 00:01:09 Gravelines triathlon 12,761 04:42
133 198 DAGBERT Joel 00:47:03 M4M 4 00:11:45 00:08:50 Cap coignieres 12,752 04:42
134 279 MAZURIER ERIC 00:47:05 M4M 5 00:11:47 00:08:52 SPORT EVASION DES 2 CAPS 12,743 04:43
135 247 LEGRAND Gregory 00:47:07 M1M 20 00:11:49 00:11:49 12,734 04:43
136 226 BRUTIER Laurent 00:47:14 M2M 21 00:11:56 00:10:53 12,703 04:43
137 27 PANEN Leo 00:47:25 JUM 2 00:12:07 00:06:43 12,654 04:45
138 209 WASSELIN David 00:47:29 M2M 22 00:12:11 00:11:08 12,636 04:45
139 65 TRIPLET Celine 00:47:31 M0F 2 00:12:13 00:02:05 AC OUTREAU 12,627 04:45
140 46 ADAM Guillaume 00:47:32 M0M 25 00:12:14 00:09:25 12,623 04:45
141 195 DE WINNE Laure 00:47:40 M1F 2 00:12:22 00:06:26 12,587 04:46
142 292 LAIDEZ RAPHAEL 00:47:42 M0M 26 00:12:24 00:09:35 . 12,579 04:46
143 230 DEBUYSERE Ghislain 00:47:44 M1M 21 00:12:26 00:12:26 12,570 04:46
144 218 HUNTEL Laurent 00:47:51 M1M 22 00:12:33 00:12:33 12,539 04:47
145 220 FAUQUET Tony 00:47:52 M1M 23 00:12:34 00:12:34 12,535 04:47
146 202 DELBEC Gerard 00:47:53 M4M 6 00:12:35 00:09:40 12,530 04:47
147 50 LEPRETRE Corentin 00:47:53 SEM 34 00:12:35 00:12:14 12,530 04:47
148 133 MARGUET Lucie 00:47:54 M1F 3 00:12:36 00:06:40 12,526 04:47
149 211 PIERRU Sigrid 00:47:54 M2F 6 00:12:36 00:07:11 12,526 04:47
150 142 FRANCO Laurent 00:48:04 M4M 7 00:12:46 00:09:51 12,483 04:48
151 212 BAQUET Stephanie 00:48:05 M1F 4 00:12:47 00:06:51 12,478 04:49
152 224 PIGERRE Audrey 00:48:06 SEF 4 00:12:48 00:02:14 12,474 04:49
153 225 PIGERRE Chloe 00:48:06 SEF 5 00:12:48 00:02:14 12,474 04:49
154 31 WILLAME Mickael 00:48:08 M0M 27 00:12:50 00:10:01 12,465 04:49
155 40 MASCLEF Ludovic 00:48:10 M1M 24 00:12:52 00:12:52 Bla bla run's 12,457 04:49
156 217 RIGAUX David 00:48:11 M1M 25 00:12:53 00:12:53 12,452 04:49
157 147 OLIVIER Guillaume 00:48:15 M0M 28 00:12:57 00:10:08 12,435 04:50
158 112 BAYARD Vincent 00:48:16 M1M 26 00:12:58 00:12:58 AS MARCK 12,431 04:50
159 266 SAMELOT VINCENT 00:48:16 M1M 27 00:12:58 00:12:58 PATRIOTES CROSS DE GUINES 12,431 04:50
160 89 HENON Bruno 00:48:18 M4M 8 00:13:00 00:10:05 12,422 04:50
161 19 CHAUVIN Mathieu 00:48:21 SEM 35 00:13:03 00:12:42 12,410 04:50
162 234 VAILLANT Patrice 00:48:26 M4M 9 00:13:08 00:10:13 Team ternois 12,388 04:51
163 293 THOMAS CHRISTOPHER 00:48:29 SEM 36 00:13:11 00:12:50 . 12,375 04:51
164 132 FRANCOIS Gilbert 00:48:29 M5M 2 00:13:11 00:01:59 Cyclo club coulonnois 12,375 04:51
165 106 LELONG Stephane 00:48:30 M2M 23 00:13:12 00:12:09 AS MARCK 12,371 04:51
166 301 DEGUINES MATHIEU 00:48:42 SEM 37 00:13:24 00:13:03 - 12,320 04:52
167 214 MUYLS Pauline 00:48:42 SEF 6 00:13:24 00:02:50 12,320 04:52
168 172 BONNIER Franck 00:48:48 M2M 24 00:13:30 00:12:27 12,295 04:53
169 210 DENEZ Christelle 00:48:50 M3F 1 00:13:32 00:00:00 12,287 04:53
170 299 DEGUINES NICOLAS 00:48:54 SEM 38 00:13:36 00:13:15 - 12,270 04:53
171 16 NATANNI Christophe 00:48:54 M3M 14 00:13:36 00:11:27 12,270 04:53
172 250 CARON Bruno 00:48:57 M4M 10 00:13:39 00:10:44 12,257 04:54
173 30 DOURDIN Lionel 00:48:57 M5M 3 00:13:39 00:02:27 12,257 04:54
174 188 LECOUSTRE Yoan 00:48:59 M1M 28 00:13:41 00:13:41 12,249 04:54
175 100 TOULOTTE Gregory 00:49:04 SEM 39 00:13:46 00:13:25 12,228 04:54
176 74 FLAHAUT Vincent 00:49:07 SEM 40 00:13:49 00:13:28 12,216 04:55
177 206 DEVIN Eric 00:49:26 M4M 11 00:14:08 00:11:13 12,138 04:57
178 25 QUENNESEN Aline 00:49:29 M1F 5 00:14:11 00:08:15 STADE OLYMPIQUE CALAIS ATHLETISME 12,125 04:57
179 58 LEOTY Audrey 00:49:34 M0F 3 00:14:16 00:04:08 12,105 04:57
180 104 MINET Olivier 00:49:39 M4M 12 00:14:21 00:11:26 12,085 04:58
181 231 STROBBE Jonathan 00:49:43 M0M 29 00:14:25 00:11:36 12,068 04:58
182 51 LEMATTRE Eric 00:49:57 M2M 25 00:14:39 00:13:36 12,012 05:00
183 17 RENIER Olivier 00:49:57 M4M 13 00:14:39 00:11:44 Running decathlon calais 12,012 05:00
184 67 LEMAIRE Emmanuel 00:49:57 M1M 29 00:14:39 00:14:39 12,012 05:00
185 84 LIANNE Ludovic 00:50:02 M4M 14 00:14:44 00:11:49 11,992 05:00
186 85 FEUTRY Christophe 00:50:02 M4M 15 00:14:44 00:11:49 AS MARCK 11,992 05:00
187 152 BIRO Soren 00:50:02 M1M 30 00:14:44 00:14:44 LA PATRIOTE CROSS DE GUINES 11,992 05:00
188 124 LECOUSTRE Nicolas 00:50:11 SEM 41 00:14:53 00:14:32 11,956 05:01
189 37 PERARD Valentin 00:50:17 SEM 42 00:14:59 00:14:38 11,932 05:02
190 99 CARBONNIER Sebastien 00:50:20 M2M 26 00:15:02 00:13:59 LA PATRIOTE CROSS DE GUINES 11,921 05:02
191 103 LUCAS Rebecca 00:50:23 ESF 1 00:15:05 00:00:00 11,909 05:02
192 35 WADOUX Olivier 00:50:27 M0M 30 00:15:09 00:12:20 11,893 05:03
193 69 ROTTHIER Nicolas 00:50:28 M0M 31 00:15:10 00:12:21 11,889 05:03
194 232 LEFEBVRE Clement 00:50:40 SEM 43 00:15:22 00:15:01 11,842 05:04
195 116 DUBOIS Jeremy 00:50:49 ESM 5 00:15:31 00:13:55 11,807 05:05
196 59 VITRY Mickael 00:51:05 M1M 31 00:15:47 00:15:47 Vitry 11,746 05:07
197 237 BOCHU Michel 00:51:17 M4M 16 00:15:59 00:13:04 11,700 05:08
198 9 MEURY Katy 00:51:19 M0F 4 00:16:01 00:05:53 11,692 05:08
199 76 BUY Sebastien 00:51:20 M0M 32 00:16:02 00:13:13 11,688 05:08
200 254 MARLARD PASCALINE 00:51:22 M2F 7 00:16:04 00:10:39 LE DRAPEAU 11,681 05:08
201 233 HAMON Thomas 00:51:29 SEM 44 00:16:11 00:15:50 11,654 05:09
202 105 MARCQ Nicolas 00:51:43 M2M 27 00:16:25 00:15:22 11,602 05:10
203 255 PEUGNIEZ JEAN-CHARLES 00:51:49 M3M 15 00:16:31 00:14:22 LYS CALAIS TRIATHLON 11,579 05:11
204 264 DEFOSSE STEPHANIE 00:51:57 M1F 6 00:16:39 00:10:43 BLANC NEZ TRIATHLON 11,550 05:12
205 45 ADAM Alicia 00:51:59 SEF 7 00:16:41 00:06:07 AC OUTREAU 11,542 05:12
206 39 DEMILLY Peggy 00:52:00 M2F 8 00:16:42 00:11:17 11,538 05:12
207 295 BEGUE MAXIME 00:52:04 SEM 45 00:16:46 00:16:25 . 11,524 05:12
208 278 GRARE EMMANUEL 00:52:13 M3M 16 00:16:55 00:14:46 LYS CALAIS TRIATHLON 11,491 05:13
209 288 RANSON GREGORY 00:52:14 SEM 46 00:16:56 00:16:35 A.S. MARCK 11,487 05:13
210 75 VERCOUTRE Vincent 00:52:14 M0M 33 00:16:56 00:14:07 AS MARCK 11,487 05:13
211 199 FOURNY Guillaume 00:52:15 M2M 28 00:16:57 00:15:54 11,483 05:14
212 298 ORGAER JEAN-FRANCOIS 00:52:16 M1M 32 00:16:58 00:16:58 . 11,480 05:14
213 164 DUVAL Marie 00:52:21 M0F 5 00:17:03 00:06:55 11,461 05:14
214 294 BEGUE MARINE 00:52:32 SEF 8 00:17:14 00:06:40 . 11,421 05:15
215 5 OUGHALIME Hocine 00:52:40 M0M 34 00:17:22 00:14:33 11,392 05:16
216 245 MALLET Vincent 00:52:51 M1M 33 00:17:33 00:17:33 Team ard'run 11,353 05:17
217 149 DAUWE Stephane 00:53:00 M1M 34 00:17:42 00:17:42 Teamtiunfou 11,321 05:18
218 11 GAUTHIER Eric 00:53:00 M4M 17 00:17:42 00:14:47 Team valeric 11,321 05:18
219 21 DEMAZEUX Franck 00:53:04 M1M 35 00:17:46 00:17:46 Tuinfou 11,307 05:18
220 146 GILLOT Jean marc 00:53:12 M4M 18 00:17:54 00:14:59 11,278 05:19
221 134 FONTAINE Mathilde 00:53:35 SEF 9 00:18:17 00:07:43 11,198 05:22
222 140 HOUVENAGHEL Philippe 00:53:39 M5M 4 00:18:21 00:07:09 11,184 05:22
223 150 DA SILVA Anne-sylvie 00:53:40 M3F 2 00:18:22 00:04:50 LA PATRIOTE CROSS DE GUINES 11,180 05:22
224 136 GAVOIS Ludivine 00:53:47 M0F 6 00:18:29 00:08:21 LA PATRIOTE CROSS DE GUINES 11,156 05:23
225 49 MOREL Manon 00:53:55 SEF 10 00:18:37 00:08:03 11,128 05:23
226 200 LARUELLE Christine 00:54:22 M2F 9 00:19:04 00:13:39 11,036 05:26
227 244 COCQUEREL Julie 00:54:24 M1F 7 00:19:06 00:13:10 Team ard'run 11,029 05:26
228 78 COUSIN Honorine 00:54:36 M0F 7 00:19:18 00:09:10 10,989 05:28
229 42 DEMARET Francois 00:54:46 SEM 47 00:19:28 00:19:07 10,956 05:29
230 251 PARISSEAUX Dorothee 00:54:49 M1F 8 00:19:31 00:13:35 10,946 05:29
231 236 VAILLANT Victor 00:54:51 SEM 48 00:19:33 00:19:12 Team ternois 10,939 05:29
232 47 BOURGOIS Nadege 00:54:52 SEF 11 00:19:34 00:09:00 10,936 05:29
233 43 DUCHEMIN Guillaume 00:54:53 SEM 49 00:19:35 00:19:14 10,932 05:29
234 118 WHEATLEY Valeriane 00:55:16 SEF 12 00:19:58 00:09:24 10,856 05:32
235 96 HADDOUCHE Kader 00:55:22 M1M 36 00:20:04 00:20:04 10,837 05:32
236 13 RINGOT Justine 00:55:24 SEF 13 00:20:06 00:09:32 10,830 05:32
237 81 LEPRINCE Philippe 00:55:30 M4M 19 00:20:12 00:17:17 10,811 05:33
238 48 MOREL Fabrice 00:55:31 M5M 5 00:20:13 00:09:01 10,808 05:33
239 256 PEUGNIEZ SOPHIE 00:55:44 M2F 10 00:20:26 00:15:01 LYS CALAIS TRIATHLON 10,766 05:34
240 281 GONCALVES SYLVIA 00:55:49 SEF 14 00:20:31 00:09:57 S.O.Calais 10,749 05:35
241 107 LAURENT Alice 00:55:52 SEF 15 00:20:34 00:10:00 10,740 05:35
242 151 HONVAULT Samuel 00:55:53 M1M 37 00:20:35 00:20:35 10,737 05:35
243 38 HERMIGNIES Christophe 00:57:02 SEM 50 00:21:44 00:21:23 10,520 05:42
244 208 DERNIS Julie 00:57:06 SEF 16 00:21:48 00:11:14 10,508 05:43
245 300 DEGUINE CLEMENT 00:57:17 SEM 51 00:21:59 00:21:38 - 10,474 05:44
246 190 DUPONT Guillaume 00:57:28 M0M 35 00:22:10 00:19:21 10,441 05:45
247 274 ANDRIEUX MARYVONNE 00:57:34 M4F 2 00:22:16 00:13:24 . 10,423 05:45
248 110 ROBILLARD Sophie 00:57:43 M1F 9 00:22:25 00:16:29 10,396 05:46
249 111 VASSEUR Thierry 00:57:43 M3M 17 00:22:25 00:20:16 10,396 05:46
250 203 BOSSAERT Patrick 00:57:46 M1M 38 00:22:28 00:22:28 10,387 05:47
251 157 WALLE David 00:57:47 M2M 29 00:22:29 00:21:26 10,384 05:47
252 44 PLESSIS Romain 00:57:59 SEM 52 00:22:41 00:22:20 10,348 05:48
253 53 MODOLO Fanny 00:58:20 M2F 11 00:23:02 00:17:37 10,286 05:50
254 29 PANEN Franck 00:59:27 M2M 30 00:24:09 00:23:06 10,093 05:57
255 125 DUWA Cedric 00:59:28 M1M 39 00:24:10 00:24:10 10,090 05:57
256 263 ADAM ELODIE 00:59:29 SEF 17 00:24:11 00:13:37 BLANC NEZ TRIATHLON 10,087 05:57
257 1 POIDEVIN Mickel 01:00:33 M0M 36 00:25:15 00:22:26 9,909 06:03
258 167 DUQUENOY Helene 01:00:59 M1F 10 00:25:41 00:19:45 9,839 06:06
259 144 BLANCK Kim-philippe 01:01:32 SEM 53 00:26:14 00:25:53 9,751 06:09
260 297 HANOT CLARA 01:01:44 ESF 2 00:26:26 00:11:21 . 9,719 06:10
261 296 CAPON CARLA 01:01:44 SEF 18 00:26:26 00:15:52 . 9,719 06:10
262 3 HAGNERE Guillaume 01:02:32 M2M 31 00:27:14 00:26:11 9,595 06:15
263 86 HAGNERE Basile 01:02:32 CAM 3 00:27:14 00:15:56 9,595 06:15
264 191 ALMUNEAU Alice 01:02:32 M0F 8 00:27:14 00:17:06 9,595 06:15
265 82 BOURBON Stephanie 01:02:33 M3F 3 00:27:15 00:13:43 9,592 06:15
266 185 HENNEQUIN Dominique 01:03:00 M4M 20 00:27:42 00:24:47 As ce adp 9,524 06:18
267 249 PATTE Frederique 01:03:31 M3F 4 00:28:13 00:14:41 AS MARCK 9,446 06:21
268 141 HOUVENAGHEL Valerie 01:05:01 M4F 3 00:29:43 00:20:51 9,228 06:30
269 26 HERBAUT Melanie 01:05:24 M2F 12 00:30:06 00:24:41 9,174 06:32
270 23 DUHAMEL Coraly 01:05:24 M1F 11 00:30:06 00:24:10 9,174 06:32
271 173 HAMY Dany 01:12:04 M3F 5 00:36:46 00:23:14 8,326 07:12
272 93 RINGOT Lucine 01:12:05 ESF 3 00:36:47 00:21:42 8,324 07:12
273 201 SERY Christian-jacques 0,05007 M7M 1 0,02556 0 8,3218 0,0050069
274 174 PERSYN Stephane 0,05008 M4M 21 0,02557 0,023542 8,3199 0,0050081